Time,TemperatureF,DewpointF,PressureIn,WindDirection,WindDirectionDegrees,WindSpeedMPH,WindSpeedGustMPH,Humidity,HourlyPrecipIn,Conditions,Clouds,dailyrainin,SoftwareType,DateUTC
2013-05-24 00:10:00,76.6,70.0,29.94,ENE,60,2.0,6.0,81,0.00,,,0.00,weatherlink.com 1.10,2013-05-24 05:10:00,
2013-05-24 00:25:00,76.5,71.0,29.94,SSW,201,2.0,7.0,82,0.00,,,0.00,weatherlink.com 1.10,2013-05-24 05:25:00,
2013-05-24 00:40:00,76.3,71.0,29.93,South,177,5.0,12.0,83,0.00,,,0.00,weatherlink.com 1.10,2013-05-24 05:40:00,
2013-05-24 00:55:00,76.0,71.0,29.93,WSW,239,1.0,7.0,84,0.00,,,0.00,weatherlink.com 1.10,2013-05-24 05:55:00,
2013-05-24 01:10:00,75.7,71.0,29.93,NE,44,5.0,6.0,84,0.00,,,0.00,weatherlink.com 1.10,2013-05-24 06:10:00,
2013-05-24 01:25:00,75.5,71.0,29.94,ENE,69,0.0,7.0,85,0.00,,,0.00,weatherlink.com 1.10,2013-05-24 06:25:00,
2013-05-24 01:40:00,75.3,71.0,29.95,ESE,114,1.0,6.0,85,0.00,,,0.00,weatherlink.com 1.10,2013-05-24 06:40:00,
2013-05-24 01:55:00,75.0,71.0,29.96,SSW,207,1.0,6.0,86,0.00,,,0.00,weatherlink.com 1.10,2013-05-24 06:55:00,
2013-05-24 02:10:00,74.7,70.0,29.94,SSE,153,1.0,8.0,86,0.00,,,0.00,weatherlink.com 1.10,2013-05-24 07:10:00,
2013-05-24 02:25:00,74.4,70.0,29.93,SE,127,1.0,10.0,87,0.00,,,0.00,weatherlink.com 1.10,2013-05-24 07:25:00,
2013-05-24 02:40:00,74.2,70.0,29.97,SSW,193,2.0,5.0,87,0.00,,,0.00,weatherlink.com 1.10,2013-05-24 07:40:00,
2013-05-24 02:55:00,74.1,70.0,29.95,SSE,156,5.0,7.0,87,0.00,,,0.00,weatherlink.com 1.10,2013-05-24 07:55:00,
2013-05-24 03:10:00,73.7,70.0,29.94,South,181,1.0,6.0,88,0.00,,,0.00,weatherlink.com 1.10,2013-05-24 08:10:00,
2013-05-24 03:25:00,73.5,70.0,29.95,SSE,160,3.0,5.0,88,0.00,,,0.00,weatherlink.com 1.10,2013-05-24 08:25:00,
2013-05-24 03:40:00,73.2,70.0,29.94,South,188,1.0,6.0,88,0.00,,,0.00,weatherlink.com 1.10,2013-05-24 08:40:00,
2013-05-24 03:55:00,73.0,69.0,29.94,SSW,201,0.0,5.0,88,0.00,,,0.00,weatherlink.com 1.10,2013-05-24 08:55:00,
2013-05-24 04:10:00,72.8,69.0,29.94,SSE,147,0.0,4.0,88,0.00,,,0.00,weatherlink.com 1.10,2013-05-24 09:10:00,
2013-05-24 04:25:00,72.6,69.0,29.95,ESE,117,1.0,128.0,88,0.00,,,0.00,weatherlink.com 1.10,2013-05-24 09:25:00,
2013-05-24 04:40:00,72.3,69.0,29.93,ENE,65,0.0,5.0,89,0.00,,,0.00,weatherlink.com 1.10,2013-05-24 09:40:00,
2013-05-24 04:55:00,72.0,69.0,29.94,SW,217,4.0,7.0,89,0.00,,,0.00,weatherlink.com 1.10,2013-05-24 09:55:00,
2013-05-24 05:10:00,71.9,69.0,29.94,WSW,249,5.0,7.0,89,0.00,,,0.00,weatherlink.com 1.10,2013-05-24 10:10:00,
2013-05-24 05:25:00,71.8,69.0,29.95,SSW,210,2.0,6.0,89,0.00,,,0.00,weatherlink.com 1.10,2013-05-24 10:25:00,
2013-05-24 05:40:00,71.6,68.0,29.95,SW,215,6.0,6.0,89,0.00,,,0.00,weatherlink.com 1.10,2013-05-24 10:40:00,
2013-05-24 05:55:00,71.4,68.0,29.95,SW,219,3.0,7.0,90,0.00,,,0.00,weatherlink.com 1.10,2013-05-24 10:55:00,
2013-05-24 06:11:00,71.2,68.0,29.95,South,174,2.0,8.0,90,0.00,,,0.00,weatherlink.com 1.10,2013-05-24 11:11:00,
2013-05-24 06:26:00,71.0,68.0,29.95,SSW,211,0.0,102.0,90,0.00,,,0.00,weatherlink.com 1.10,2013-05-24 11:26:00,
2013-05-24 06:41:00,71.1,68.0,29.97,WNW,287,1.0,3.0,91,0.00,,,0.00,weatherlink.com 1.10,2013-05-24 11:41:00,
2013-05-24 06:56:00,70.0,64.0,29.96,NW,314,1.0,12.0,80,0.00,,,0.00,weatherlink.com 1.10,2013-05-24 11:56:00,
2013-05-24 07:11:00,69.7,63.0,29.98,NW,304,3.0,32.0,80,0.00,,,0.00,weatherlink.com 1.10,2013-05-24 12:11:00,
2013-05-24 07:26:00,69.1,63.0,30.00,WSW,252,0.0,4.0,80,0.00,,,0.00,weatherlink.com 1.10,2013-05-24 12:26:00,
2013-05-24 07:41:00,68.3,62.0,30.00,NW,319,6.0,11.0,81,0.00,,,0.00,weatherlink.com 1.10,2013-05-24 12:41:00,
2013-05-24 07:56:00,67.8,63.0,30.00,NW,316,1.0,5.0,83,0.00,,,0.00,weatherlink.com 1.10,2013-05-24 12:56:00,
2013-05-24 08:11:00,67.1,63.0,30.00,WSW,251,0.0,147.0,87,0.00,,,0.00,weatherlink.com 1.10,2013-05-24 13:11:00,
2013-05-24 08:26:00,66.6,63.0,30.00,NNE,23,0.0,1.0,89,0.00,,,0.00,weatherlink.com 1.10,2013-05-24 13:26:00,
2013-05-24 08:41:00,66.5,64.0,30.00,NNE,23,1.0,1.0,90,0.00,,,0.00,weatherlink.com 1.10,2013-05-24 13:41:00,
2013-05-24 08:56:00,66.7,64.0,30.01,South,177,1.0,23.0,90,0.00,,,0.00,weatherlink.com 1.10,2013-05-24 13:56:00,
2013-05-24 09:11:00,67.1,64.0,30.01,South,190,0.0,128.0,89,0.00,,,0.00,weatherlink.com 1.10,2013-05-24 14:11:00,
2013-05-24 09:26:00,67.5,64.0,30.01,SW,216,1.0,2.0,88,0.00,,,0.00,weatherlink.com 1.10,2013-05-24 14:26:00,
2013-05-24 09:41:00,67.8,64.0,30.01,ENE,75,1.0,204.0,88,0.00,,,0.00,weatherlink.com 1.10,2013-05-24 14:41:00,
2013-05-24 09:56:00,68.1,64.0,30.02,SSE,162,0.0,28.0,87,0.00,,,0.00,weatherlink.com 1.10,2013-05-24 14:56:00,
2013-05-24 10:11:00,68.1,65.0,30.02,SE,136,3.0,51.0,88,0.00,,,0.00,weatherlink.com 1.10,2013-05-24 15:11:00,
2013-05-24 10:26:00,67.9,65.0,30.03,SW,226,4.0,6.0,89,0.00,,,0.00,weatherlink.com 1.10,2013-05-24 15:26:00,
2013-05-24 10:41:00,67.9,65.0,30.03,SW,214,3.0,4.0,89,0.00,,,0.00,weatherlink.com 1.10,2013-05-24 15:41:00,
2013-05-24 10:56:00,68.1,65.0,30.04,South,179,2.0,4.0,88,0.00,,,0.00,weatherlink.com 1.10,2013-05-24 15:56:00,
2013-05-24 11:11:00,68.1,65.0,30.02,SSW,194,0.0,73.0,88,0.00,,,0.00,weatherlink.com 1.10,2013-05-24 16:11:00,
2013-05-24 11:26:00,68.1,65.0,30.04,SSW,203,0.0,2.0,88,0.00,,,0.00,weatherlink.com 1.10,2013-05-24 16:26:00,
2013-05-24 11:41:00,67.8,65.0,30.04,SSW,210,0.0,4.0,90,0.01,,,0.01,weatherlink.com 1.10,2013-05-24 16:41:00,
2013-05-24 11:56:00,67.3,64.0,30.06,South,181,4.0,12.0,90,0.02,,,0.02,weatherlink.com 1.10,2013-05-24 16:56:00,
2013-05-24 12:11:00,66.0,63.0,30.05,WSW,253,6.0,12.0,91,0.10,,,0.10,weatherlink.com 1.10,2013-05-24 17:11:00,
2013-05-24 12:26:00,65.4,63.0,30.04,East,88,2.0,11.0,91,0.11,,,0.11,weatherlink.com 1.10,2013-05-24 17:26:00,
2013-05-24 12:41:00,65.2,63.0,30.03,WSW,250,0.0,6.0,92,0.10,,,0.11,weatherlink.com 1.10,2013-05-24 17:41:00,
2013-05-24 12:56:00,65.3,63.0,30.01,NNW,336,1.0,236.0,92,0.10,,,0.12,weatherlink.com 1.10,2013-05-24 17:56:00,
2013-05-24 13:11:00,65.4,63.0,30.02,South,187,0.0,41.0,93,0.03,,,0.13,weatherlink.com 1.10,2013-05-24 18:11:00,
2013-05-24 13:26:00,65.2,63.0,30.00,North,11,1.0,146.0,93,0.04,,,0.15,weatherlink.com 1.10,2013-05-24 18:26:00,
2013-05-24 13:41:00,65.2,64.0,29.99,ENE,67,0.0,104.0,94,0.08,,,0.19,weatherlink.com 1.10,2013-05-24 18:41:00,
2013-05-24 13:56:00,65.1,63.0,29.98,WSW,246,1.0,234.0,94,0.10,,,0.22,weatherlink.com 1.10,2013-05-24 18:56:00,
2013-05-24 14:11:00,65.1,63.0,29.96,WSW,248,0.0,1.0,94,0.10,,,0.23,weatherlink.com 1.10,2013-05-24 19:11:00,
2013-05-24 14:26:00,65.3,64.0,29.96,SSE,148,0.0,3.0,95,0.08,,,0.23,weatherlink.com 1.10,2013-05-24 19:26:00,
2013-05-24 14:41:00,66.4,65.0,29.96,ENE,70,1.0,2.0,95,0.04,,,0.23,weatherlink.com 1.10,2013-05-24 19:41:00,
2013-05-24 14:56:00,68.1,66.0,29.96,NE,53,1.0,2.0,92,0.01,,,0.23,weatherlink.com 1.10,2013-05-24 19:56:00,
2013-05-24 15:11:00,69.1,66.0,29.96,NNE,27,2.0,3.0,89,0.00,,,0.23,weatherlink.com 1.10,2013-05-24 20:11:00,
2013-05-24 15:26:00,70.3,66.0,29.97,SW,217,0.0,92.0,87,0.00,,,0.23,weatherlink.com 1.10,2013-05-24 20:26:00,
2013-05-24 15:41:00,71.7,67.0,29.96,SSW,200,0.0,5.0,84,0.00,,,0.23,weatherlink.com 1.10,2013-05-24 20:41:00,
2013-05-24 15:56:00,72.9,68.0,29.96,SSW,206,7.0,8.0,84,0.00,,,0.23,weatherlink.com 1.10,2013-05-24 20:56:00,
2013-05-24 16:11:00,73.0,68.0,29.97,East,91,1.0,9.0,84,0.00,,,0.23,weatherlink.com 1.10,2013-05-24 21:11:00,
2013-05-24 16:26:00,72.3,67.0,29.97,SSW,202,1.0,8.0,84,0.00,,,0.23,weatherlink.com 1.10,2013-05-24 21:26:00,
2013-05-24 16:41:00,71.0,67.0,29.96,South,169,2.0,98.0,88,0.01,,,0.24,weatherlink.com 1.10,2013-05-24 21:41:00,
2013-05-24 16:57:00,69.6,67.0,29.97,SSE,156,0.0,4.0,91,0.06,,,0.29,weatherlink.com 1.10,2013-05-24 21:57:00,
2013-05-24 17:27:00,68.4,66.0,29.95,NNE,16,2.0,144.0,92,0.12,,,0.35,weatherlink.com 1.10,2013-05-24 22:27:00,
2013-05-24 17:42:00,68.3,66.0,29.95,ENE,74,2.0,7.0,93,0.11,,,0.35,weatherlink.com 1.10,2013-05-24 22:42:00,
2013-05-24 17:57:00,68.4,66.0,29.96,NE,49,3.0,5.0,93,0.06,,,0.35,weatherlink.com 1.10,2013-05-24 22:57:00,
2013-05-24 18:12:00,68.4,66.0,29.97,SSW,194,1.0,8.0,93,0.05,,,0.37,weatherlink.com 1.10,2013-05-24 23:12:00,
2013-05-24 18:27:00,68.5,67.0,29.98,South,191,7.0,8.0,93,0.02,,,0.37,weatherlink.com 1.10,2013-05-24 23:27:00,
2013-05-24 18:42:00,68.6,67.0,29.98,WNW,287,5.0,8.0,93,0.02,,,0.37,weatherlink.com 1.10,2013-05-24 23:42:00,
2013-05-24 18:57:00,68.5,67.0,29.99,NE,54,3.0,114.0,93,0.02,,,0.37,weatherlink.com 1.10,2013-05-24 23:57:00,
2013-05-24 19:12:00,68.4,66.0,29.99,North,352,1.0,4.0,93,0.00,,,0.37,weatherlink.com 1.10,2013-05-25 00:12:00,
2013-05-24 19:27:00,68.3,66.0,30.00,NE,48,4.0,4.0,93,0.00,,,0.37,weatherlink.com 1.10,2013-05-25 00:27:00,
2013-05-24 19:42:00,68.1,66.0,30.00,East,91,0.0,9.0,94,0.00,,,0.37,weatherlink.com 1.10,2013-05-25 00:42:00,
2013-05-24 19:57:00,68.0,66.0,30.00,NE,41,4.0,15.0,94,0.00,,,0.37,weatherlink.com 1.10,2013-05-25 00:57:00,
2013-05-24 20:12:00,67.8,66.0,30.00,NE,51,2.0,4.0,94,0.00,,,0.37,weatherlink.com 1.10,2013-05-25 01:12:00,
2013-05-24 20:27:00,67.7,66.0,30.00,NNE,22,1.0,3.0,94,0.00,,,0.37,weatherlink.com 1.10,2013-05-25 01:27:00,
2013-05-24 20:42:00,67.5,66.0,29.99,ENE,70,0.0,229.0,94,0.00,,,0.37,weatherlink.com 1.10,2013-05-25 01:42:00,
2013-05-24 20:57:00,67.4,66.0,30.00,ENE,70,0.0,1.0,95,0.00,,,0.37,weatherlink.com 1.10,2013-05-25 01:57:00,
2013-05-24 21:12:00,67.2,66.0,30.00,ESE,115,0.0,184.0,95,0.00,,,0.37,weatherlink.com 1.10,2013-05-25 02:12:00,
2013-05-24 21:27:00,67.1,66.0,30.00,ESE,117,0.0,1.0,95,0.00,,,0.37,weatherlink.com 1.10,2013-05-25 02:27:00,
2013-05-24 21:43:00,67.1,66.0,30.00,ENE,62,0.0,1.0,95,0.00,,,0.37,weatherlink.com 1.10,2013-05-25 02:43:00,
2013-05-24 21:57:00,67.1,66.0,30.01,ENE,63,0.0,1.0,96,0.00,,,0.37,weatherlink.com 1.10,2013-05-25 02:57:00,
2013-05-24 22:12:00,67.0,66.0,30.02,ENE,67,1.0,3.0,96,0.00,,,0.37,weatherlink.com 1.10,2013-05-25 03:12:00,
2013-05-24 22:27:00,67.1,66.0,30.02,NE,50,1.0,4.0,95,0.00,,,0.37,weatherlink.com 1.10,2013-05-25 03:27:00,
2013-05-24 22:42:00,67.2,66.0,30.03,East,91,2.0,3.0,95,0.00,,,0.37,weatherlink.com 1.10,2013-05-25 03:42:00,
2013-05-24 22:57:00,67.2,66.0,30.04,East,94,0.0,1.0,95,0.00,,,0.37,weatherlink.com 1.10,2013-05-25 03:57:00,
2013-05-24 23:12:00,67.4,66.0,30.04,ENE,74,1.0,5.0,95,0.00,,,0.37,weatherlink.com 1.10,2013-05-25 04:12:00,
2013-05-24 23:27:00,67.4,66.0,30.04,SE,131,0.0,5.0,94,0.00,,,0.37,weatherlink.com 1.10,2013-05-25 04:27:00,
2013-05-24 23:42:00,67.4,66.0,30.04,SSW,194,1.0,2.0,94,0.00,,,0.37,weatherlink.com 1.10,2013-05-25 04:42:00,
2013-05-24 23:57:00,67.4,66.0,30.04,SSW,201,0.0,2.0,95,0.00,,,0.37,weatherlink.com 1.10,2013-05-25 04:57:00,